Location: Kejimkujik National Park
(44.4000°N, 65.2200°W)
Time: 01:00:20
(UTC-04:00)

N. Korean satellite - Visible Passes

Search period start: 04 December 2020 00:00
Search period end: 14 December 2020 00:00
Orbit: 453 x 503 km, 97.2° (Epoch: 03 December)

Date Brightness Start Highest point End Pass type
(mag) Time Alt. Az. Time Alt. Az. Time Alt. Az.
04 Dec 9.2 05:06:44 10° NE 05:09:36 21° E 05:12:28 10° SE visible
04 Dec 7.5 06:39:49 10° NNW 06:42:55 26° WNW 06:46:01 10° SW visible
04 Dec 7.4 17:15:52 10° S 17:19:14 53° W 17:22:39 10° NNW visible
05 Dec 10.1 04:42:09 10° ENE 04:43:02 11° E 04:43:56 10° ESE visible
05 Dec 6.6 06:13:06 10° N 06:16:41 54° WNW 06:20:16 10° SSW visible
06 Dec 6.9 05:46:42 10° NNE 05:50:21 68° E 05:54:02 10° S visible
06 Dec 9.7 17:57:44 10° SW 18:00:01 17° W 18:02:21 10° NW visible
07 Dec 8.5 05:20:37 10° NNE 05:23:56 31° E 05:27:15 10° SSE visible
07 Dec 8.0 06:54:26 10° NNW 06:57:03 19° WNW 06:59:41 10° WSW visible
07 Dec 8.4 17:30:20 10° SSW 17:33:30 34° W 17:36:43 10° NNW visible
08 Dec 9.7 04:55:05 10° NE 04:57:24 16° E 04:59:43 10° SE visible
08 Dec 7.1 06:27:28 10° N 06:30:51 36° WNW 06:34:15 10° SW visible
09 Dec 6.5 06:00:53 10° N 06:04:34 78° WNW 06:08:15 10° SSW visible
09 Dec 10.0 18:13:09 10° WSW 18:14:20 11° W 18:15:31 10° WNW visible
10 Dec 7.6 05:34:35 10° NNE 05:38:10 47° E 05:41:44 10° S visible
10 Dec 8.4 07:09:14 10° NW 07:11:05 13° WNW 07:12:58 10° W visible
10 Dec 9.2 17:44:53 10° SSW 17:47:42 23° W 17:50:36 10° NW visible
11 Dec 9.1 05:08:40 10° NE 05:11:40 23° E 05:14:39 10° SSE visible
11 Dec 7.6 06:41:51 10° NNW 06:44:56 25° WNW 06:48:00 10° SW visible
11 Dec 7.6 17:17:49 10° S 17:21:12 50° W 17:24:39 10° NNW visible
12 Dec 10.0 04:43:42 10° ENE 04:45:03 12° E 04:46:24 10° ESE visible
12 Dec 6.7 06:15:04 10° N 06:18:40 51° WNW 06:22:15 10° SSW visible
13 Dec 6.8 05:48:35 10° NNE 05:52:18 73° ESE 05:55:59 10° S visible
13 Dec 9.7 17:59:39 10° SW 18:01:53 16° W 18:04:10 10° NW visible
